Temperature
21 20 20 20 20 19 18 18 19 19 19 18 18 18 19 20 19 20 22 24 25 25 24 24 25 25 25 24 23 22 22 21 20 20 19 19 19 18 18 18 18 17 17 17
20 20 21 20 19 19 19 18 18 19 19 18 18 18 19 19 19 20 21 23 24 26 25 24 26 25 25 24 24 22 21 21 20 20 19 19 19 18 18 18 18 17 17 17
21 22 22 22 20 19 19 18 18 18 18 18 17 17 17 19 20 20 20 20 21 23 24 23 24 25 25 24 23 22 21 21 20 19 19 19 18 18 17 17 18 18 18 17
22 23 23 22 20 20 18 19 19 18 16 15 16 15 16 18 18 19 19 19 20 21 22 22 22 23 23 24 23 22 22 21 20 20 19 19 18 18 17 17 18 18 18 17
21 22 22 22 21 20 18 17 16 16 15 15 15 15 16 17 17 18 18 20 22 22 21 21 20 20 21 21 22 21 21 21 20 20 19 18 18 18 17 17 17 18 17 17
21 22 22 22 22 20 18 17 15 15 14 15 15 16 15 16 16 17 19 21 21 23 22 22 21 20 19 21 20 21 21 20 20 19 18 18 17 17 17 17 17 17 17 17
19 20 21 21 20 20 18 17 16 14 15 16 15 15 13 14 15 16 16 18 18 19 21 20 20 19 19 19 20 21 20 20 20 19 18 17 17 17 17 17 17 17 17 16
16 15 18 19 19 18 18 17 16 14 15 15 17 15 13 15 15 16 15 14 15 15 17 18 19 20 17 18 18 21 21 19 20 20 18 18 17 17 17 18 17 17 17 16
16 16 19 19 18 17 15 15 15 15 15 14 14 14 15 15 14 15 15 14 14 14 15 15 16 16 17 19 21 22 20 19 20 20 18 17 17 17 17 17 17 17 16 16
16 13 16 17 16 16 14 14 11 13 13 13 13 13 12 13 13 14 14 14 14 14 17 17 17 17 19 21 21 20 19 18 20 20 18 18 18 17 17 17 17 17 16 16
15 13 13 14 12 12 12 12 11 12 12 12 12 12 13 12 13 12 14 14 14 16 17 18 19 19 19 19 20 19 17 19 21 20 19 18 19 18 17 17 17 16 16 16
15 12 12 12 13 13 12 11 11 11 11 11 13 12 14 13 13 11 13 13 13 15 16 17 20 20 21 21 20 19 18 19 21 20 19 19 19 18 18 18 18 17 16 16
15 12 11 11 11 12 11 12 12 12 12 12 12 12 14 12 12 11 11 11 12 13 15 17 19 19 20 21 21 20 19 20 20 19 19 19 19 18 18 18 17 17 17 16
14 12 11 11 11 11 10 11 13 12 11 12 12 11 12 12 12 11 11 11 12 15 17 18 19 19 19 20 20 19 19 19 19 19 18 18 17 17 17 16 16 16 16 16
12 12 12 12 12 12 11 11 12 12 12 12 12 11 11 12 11 11 10 11 12 13 18 18 18 19 20 19 19 19 18 18 18 17 16 16 16 16 15 15 14 14 14 15
12 12 12 12 12 12 10 10 11 11 11 11 11 11 12 11 10 10 11 12 12 12 14 16 17 18 18 19 18 18 18 18 18 18 17 17 18 16 16 17 15 16 16 16
12 10 11 10 11 12 9 9 9 10 10 11 9 11 11 10 10 10 11 11 12 12 14 14 15 16 17 18 17 17 17 17 18 17 17 17 17 17 15 15 15 15 15 15
11 11 10 9 11 10 10 10 10 10 10 10 10 10 10 10 10 11 11 11 12 14 14 14 15 15 15 15 16 16 15 16 16 15 15 15 16 16 15 14 15 15 14 15
10 10 10 9 8 9 10 11 9 9 9 10 9 10 10 10 12 13 12 12 13 14 14 14 14 15 15 15 15 15 15 14 14 14 14 14 15 14 14 14 14 14 14 14
11 10 9 9 9 8 10 11 10 10 9 10 9 9 9 9 10 12 12 13 14 15 14 14 14 14 14 14 14 15 14 13 13 12 12 12 12 13 13 13 13 13 12 13
10 9 8 9 9 9 11 11 10 8 9 10 10 10 9 9 9 11 12 14 15 15 15 14 14 14 14 14 14 13 13 13 12 12 12 11 11 11 11 11 11 11 11 11
10 9 9 8 9 8 11 9 8 9 10 10 10 10 11 11 12 12 13 15 15 15 15 15 15 15 14 14 14 14 13 12 12 12 12 11 11 11 11 11 11 11 11 11
9 11 9 10 10 11 11 10 11 10 10 11 11 11 11 12 12 13 14 15 15 15 15 15 14 15 14 14 14 14 13 13 12 12 12 12 12 12 11 11 11 11 11 11
12 12 10 10 10 11 11 11 11 11 11 12 12 12 12 12 13 13 14 15 15 16 15 15 15 15 15 14 14 14 14 13 13 13 12 12 11 11 11 11 11 11 11 11
11 12 10 10 10 11 11 12 12 12 12 12 12 12 12 12 13 13 14 15 15 15 15 15 15 15 15 15 15 14 14 14 13 12 12 12 11 11 11 11 11 11 11 10
12 11 10 10 11 11 12 13 12 12 12 12 12 12 12 12 13 13 14 14 15 15 15 16 16 16 15 15 15 15 14 14 13 13 12 12 11 11 11 11 11 11 11 10
Wind_Speed
2 1 2 5 5 6 5 4 6 5 4 4 7 9 13 8 4 6 6 5 2 9 16 8 17 20 17 15 15 14 15 13 11 7 6 5 6 5 4 4 6 8 7 5
3 3 5 6 5 4 4 2 4 4 2 3 6 11 13 10 7 6 8 8 10 13 13 8 13 19 19 18 16 16 17 14 12 9 5 4 4 3 3 3 4 6 6 6
4 6 7 6 5 4 4 5 5 4 3 2 5 7 6 6 7 5 5 7 12 16 16 10 11 16 20 21 19 17 15 13 11 10 7 5 5 3 2 1 2 4 6 6
3 2 6 5 5 5 5 4 3 3 4 3 3 6 6 4 3 4 5 8 9 9 4 5 5 6 10 16 18 16 13 11 10 11 9 8 5 4 5 4 4 4 5 7
5 6 5 3 2 5 3 7 6 4 3 2 1 2 7 7 6 7 10 11 7 7 4 6 5 4 3 2 6 13 13 10 10 10 9 8 5 4 3 3 4 5 5 5
4 5 4 3 2 6 9 6 5 3 3 2 4 4 6 13 17 18 13 10 12 11 10 11 6 2 6 7 6 5 11 8 8 8 7 8 7 6 4 4 4 3 2 3
7 6 6 10 11 4 3 4 3 5 1 4 2 3 7 15 20 21 21 18 14 5 3 9 12 2 1 6 1 5 7 6 7 8 8 8 7 7 8 7 6 5 4 4
4 7 7 11 6 6 5 5 5 4 4 3 1 2 6 12 18 21 19 19 23 22 18 13 5 10 9 9 4 5 6 6 7 8 7 6 6 6 5 6 6 6 5 5
6 6 11 11 7 8 5 2 2 3 0 1 4 6 2 16 21 24 21 20 18 13 14 14 15 10 12 18 15 8 10 8 7 6 5 5 5 6 5 4 5 4 4 4
3 7 6 7 10 11 7 4 2 1 4 4 0 1 3 11 17 21 20 14 13 8 8 10 8 9 14 0 6 5 5 6 6 4 4 5 5 8 6 5 6 6 6 5
3 2 6 7 4 6 7 4 2 2 2 4 3 0 4 8 14 19 21 15 14 13 6 3 3 6 9 6 1 6 9 9 6 6 6 4 6 7 7 4 5 6 6 7
5 4 4 2 3 2 5 2 2 1 1 0 3 3 1 6 10 15 19 19 20 19 14 7 6 11 11 8 7 8 6 6 7 7 5 5 5 4 5 6 5 6 7 7
6 4 5 7 6 4 7 11 4 3 2 1 2 2 7 12 13 13 14 15 15 16 16 12 9 13 14 14 6 5 6 8 5 4 4 5 6 6 5 5 4 5 6 7
7 3 2 2 4 3 5 13 11 4 2 4 4 6 15 20 22 23 20 16 16 16 11 14 11 12 12 14 9 5 6 5 3 3 3 2 4 4 2 4 7 6 6 8
4 2 2 8 11 14 14 18 19 15 10 6 5 6 12 15 17 18 19 15 15 18 11 6 2 1 2 4 4 5 3 1 3 3 8 8 7 6 8 8 9 9 12 9
5 3 4 8 7 13 16 20 20 15 11 10 10 6 13 17 17 19 19 16 12 11 13 15 16 16 14 13 14 14 10 8 8 6 10 11 13 13 13 10 9 8 10 11
5 3 4 3 2 4 8 13 13 10 12 10 8 11 17 19 19 18 17 17 12 9 12 16 15 15 12 12 14 12 9 8 7 6 1 4 8 5 6 3 6 7 7 3
3 4 2 4 5 5 3 6 5 7 8 11 11 12 14 16 16 8 12 15 13 12 12 11 10 11 9 7 8 10 6 5 8 9 9 8 8 6 2 1 2 2 3 3
5 3 3 3 3 2 4 7 7 5 4 10 11 16 18 19 11 7 19 21 12 8 7 6 6 7 7 8 9 8 8 8 9 9 8 8 8 7 6 6 6 5 4 4
7 7 5 3 3 1 3 6 3 0 2 10 11 13 16 15 11 11 19 19 11 4 4 6 6 7 7 7 8 9 8 8 8 7 7 6 7 7 8 7 6 5 5 5
7 7 6 4 2 1 3 6 1 1 5 11 10 11 10 5 7 15 19 16 9 2 3 5 6 5 4 4 7 8 8 8 6 6 6 6 5 5 5 5 6 6 7 7
2 3 4 3 3 2 3 4 2 3 5 7 7 8 9 12 12 13 13 13 9 3 3 5 5 4 3 4 5 6 6 4 5 6 6 5 5 6 5 7 7 7 6 7
1 3 2 2 2 3 1 1 4 4 5 6 6 9 8 9 12 14 13 14 9 2 2 3 3 4 5 3 2 4 4 3 4 5 5 5 6 6 6 6 6 5 6 5
3 2 2 1 2 2 4 3 4 5 7 10 10 9 8 7 11 13 14 12 9 5 3 2 2 4 5 5 3 2 2 2 4 4 3 3 4 3 4 4 4 4 4 4
5 3 2 1 2 1 5 4 5 7 9 10 9 7 7 7 9 8 9 11 9 7 5 2 2 4 5 5 3 3 1 4 4 3 0 1 2 3 2 3 3 2 2 3
6 6 6 5 7 5 4 6 6 6 6 7 6 7 7 6 8 9 9 8 7 8 5 4 5 5 4 3 3 4 2 4 4 3 0 1 2 3 3 3 1 2 2 3
Wind_Direction
252 58 261 224 189 177 166 222 257 247 204 234 244 258 271 269 287 297 287 269 0 358 333 271 177 176 174 170 172 163 165 169 157 143 142 162 160 161 176 198 197 187 179 175
349 276 211 171 164 151 164 218 272 270 186 263 273 268 267 262 250 242 294 330 332 326 317 265 173 171 172 169 168 165 171 166 162 157 151 153 146 161 164 182 179 177 172 176
207 246 188 184 193 190 205 201 216 236 332 355 320 285 269 258 234 213 238 286 275 267 249 213 175 174 174 169 171 169 166 159 156 144 127 98 92 80 77 127 182 181 198 207
324 277 202 220 231 184 242 211 132 77 35 330 13 300 294 295 284 254 240 243 245 286 224 176 158 161 197 180 163 157 152 152 154 146 148 156 160 161 177 177 193 214 211 211
308 311 297 249 261 160 152 101 105 112 96 319 270 247 297 1 331 288 254 234 227 225 175 109 66 42 11 17 123 138 139 147 148 149 154 151 141 145 153 160 191 229 225 223
296 319 354 19 22 120 127 101 66 57 71 297 240 213 359 9 358 342 314 268 247 224 202 146 126 230 214 136 125 149 130 132 129 134 143 146 152 155 154 169 189 216 230 238
328 334 356 25 1 19 89 108 37 349 306 235 285 97 58 11 4 359 1 350 342 299 259 124 123 114 320 65 99 137 118 140 147 150 159 163 169 171 179 188 180 190 194 217
335 318 352 350 340 277 265 153 171 214 238 291 317 91 85 2 347 355 10 24 35 23 22 20 24 171 192 134 206 163 152 191 167 166 180 183 175 179 187 192 180 197 201 207
340 298 330 341 8 27 336 82 143 162 108 39 355 31 29 3 355 351 358 14 19 24 32 18 14 347 184 169 190 180 169 190 187 185 197 226 201 181 171 181 181 192 191 190
348 307 332 355 19 18 358 4 6 199 170 176 140 38 285 347 348 342 340 348 343 331 35 22 27 342 310 307 133 134 156 203 199 197 227 235 198 179 167 170 173 181 176 170
26 352 325 16 32 329 3 31 354 163 141 153 148 108 355 328 338 342 329 338 335 325 16 9 312 287 279 321 152 169 205 202 187 190 205 193 151 164 172 187 177 174 171 180
354 44 347 319 237 159 92 66 3 71 342 282 136 147 85 336 3 349 333 346 352 336 304 258 248 268 266 240 204 199 215 222 205 188 176 180 173 187 205 211 197 182 188 193
347 33 2 341 340 4 25 346 295 220 190 171 98 345 5 3 358 344 335 345 348 327 290 258 246 260 279 290 295 229 205 226 217 165 173 197 202 198 216 242 238 207 197 203
34 52 82 319 319 53 30 3 25 127 138 89 68 4 358 355 348 341 345 342 338 328 280 236 229 246 253 273 277 212 222 233 180 168 206 44 359 321 309 299 286 276 238 211
43 337 50 70 78 70 38 20 23 41 47 56 35 27 353 347 343 339 336 341 358 355 8 33 50 282 333 282 236 165 199 319 83 112 87 67 5 352 45 345 311 340 316 273
358 339 45 112 107 76 45 21 14 21 32 31 18 358 349 344 348 348 354 10 12 355 20 38 42 53 50 53 52 49 33 34 66 124 171 174 202 185 164 192 208 198 246 268
330 351 20 349 333 137 25 7 8 1 25 17 10 345 346 338 341 343 349 7 14 13 28 42 44 51 46 57 74 62 25 13 48 63 68 224 243 176 202 227 257 258 265 263
337 9 43 356 4 43 325 295 328 338 23 11 345 344 341 332 320 316 3 0 1 17 35 41 47 56 51 41 59 68 42 27 48 50 49 45 55 71 80 244 284 321 307 249
21 57 60 66 49 12 325 336 339 334 17 2 342 337 344 342 337 357 0 351 340 356 14 27 43 57 55 47 49 60 52 44 44 41 40 38 47 53 45 35 20 15 12 356
11 42 56 49 69 23 297 324 351 211 342 346 340 331 341 351 13 343 333 330 328 7 27 42 45 50 52 43 50 52 42 42 39 40 52 49 49 46 37 29 19 14 22 29
353 11 31 32 58 282 302 310 309 356 315 324 322 318 329 341 306 302 314 325 327 356 60 65 63 61 54 52 57 49 38 28 21 43 69 55 54 58 43 31 23 23 30 36
17 13 354 12 16 313 314 347 17 270 296 300 304 296 306 314 311 315 321 331 333 357 36 51 43 24 17 30 49 40 26 8 44 64 70 53 39 34 35 48 40 37 43 44
185 195 194 207 244 250 77 207 276 280 286 285 289 292 294 309 318 324 332 339 342 315 329 29 15 333 341 350 7 9 341 9 61 69 63 45 47 46 40 48 40 34 32 33
269 202 157 150 266 248 186 238 280 283 286 294 297 295 299 304 314 323 336 339 338 318 307 7 349 307 334 334 305 284 333 61 73 70 73 41 32 29 32 37 42 41 21 5
219 199 173 158 258 207 198 248 271 283 289 289 298 294 293 302 308 315 325 330 336 325 302 303 262 292 320 340 312 294 59 75 91 84 28 333 348 328 349 17 22 22 8 353
199 183 168 195 193 174 244 276 280 282 301 313 317 319 322 309 314 327 326 320 325 331 318 288 271 275 293 322 287 266 206 127 125 138 207 305 329 327 318 310 319 59 18 5
Height
1496 1501 1504 1500 1499 1502 1508 1511 1509 1504 1500 1502 1499 1496 1488 1484 1483 1480 1474 1471 1469 1473 1477 1480 1481 1484 1488 1491 1494 1496 1497 1500 1503 1505 1509 1511 1513 1516 1518 1520 1522 1523 1525 1527
1502 1503 1496 1496 1497 1499 1503 1508 1507 1501 1497 1500 1498 1495 1485 1481 1480 1478 1473 1465 1461 1464 1472 1476 1473 1477 1480 1484 1488 1491 1494 1497 1499 1503 1507 1509 1512 1514 1515 1518 1520 1521 1523 1525
1502 1497 1491 1492 1495 1499 1501 1505 1503 1505 1499 1498 1501 1496 1486 1476 1476 1476 1474 1472 1468 1466 1469 1474 1471 1471 1474 1478 1482 1487 1491 1494 1496 1500 1504 1507 1510 1512 1513 1514 1517 1519 1520 1521
1496 1491 1490 1491 1494 1496 1505 1495 1498 1503 1509 1513 1507 1515 1492 1481 1479 1476 1474 1473 1471 1467 1465 1469 1470 1474 1477 1474 1476 1482 1487 1491 1494 1498 1500 1504 1505 1507 1509 1511 1514 1516 1517 1518
1500 1493 1491 1492 1492 1490 1498 1496 1501 1505 1511 1516 1509 1515 1499 1488 1486 1480 1473 1471 1468 1470 1463 1465 1470 1476 1483 1482 1479 1481 1485 1489 1492 1495 1497 1499 1502 1505 1508 1510 1512 1514 1516 1517
1498 1493 1491 1492 1490 1488 1493 1499 1506 1509 1514 1522 1511 1512 1510 1503 1498 1484 1470 1465 1467 1462 1462 1463 1469 1475 1484 1480 1487 1490 1482 1485 1489 1493 1497 1498 1502 1504 1507 1509 1511 1513 1514 1514
1507 1500 1495 1494 1496 1493 1496 1505 1520 1528 1522 1515 1507 1511 1524 1512 1502 1492 1480 1470 1463 1457 1457 1458 1462 1474 1482 1483 1490 1488 1484 1487 1489 1492 1495 1498 1500 1502 1504 1506 1508 1511 1512 1512
1522 1525 1505 1501 1502 1502 1497 1503 1519 1535 1528 1517 1505 1515 1520 1509 1501 1492 1484 1475 1469 1467 1461 1461 1464 1470 1482 1482 1492 1487 1489 1490 1490 1492 1495 1497 1498 1500 1503 1503 1506 1509 1509 1509
1524 1521 1507 1503 1501 1502 1507 1506 1507 1516 1518 1527 1523 1515 1511 1505 1499 1493 1488 1482 1480 1481 1476 1474 1474 1477 1480 1480 1485 1485 1486 1489 1489 1491 1495 1498 1500 1501 1502 1502 1505 1508 1508 1507
1521 1530 1513 1507 1506 1508 1511 1510 1522 1519 1529 1533 1530 1526 1526 1514 1508 1500 1496 1492 1489 1484 1477 1478 1481 1491 1482 1478 1477 1481 1484 1486 1486 1490 1494 1496 1498 1501 1502 1502 1503 1505 1505 1507
1523 1530 1525 1519 1524 1524 1518 1519 1521 1522 1525 1531 1531 1532 1522 1519 1514 1507 1502 1497 1493 1486 1479 1483 1483 1481 1477 1473 1474 1479 1480 1481 1484 1489 1493 1493 1495 1499 1501 1503 1505 1504 1504 1506
1523 1532 1534 1531 1524 1521 1522 1525 1523 1525 1526 1526 1525 1534 1520 1521 1519 1517 1509 1500 1493 1489 1488 1486 1481 1474 1471 1473 1475 1477 1479 1483 1485 1488 1490 1492 1495 1499 1501 1502 1503 1502 1503 1504
1526 1534 1541 1538 1535 1529 1527 1523 1517 1519 1522 1525 1529 1534 1519 1518 1515 1516 1510 1502 1495 1493 1488 1486 1483 1480 1476 1473 1475 1479 1483 1486 1487 1488 1490 1492 1496 1496 1497 1499 1500 1501 1500 1501
1527 1535 1540 1545 1539 1531 1535 1528 1514 1516 1525 1524 1527 1529 1523 1516 1513 1506 1502 1499 1492 1486 1484 1480 1478 1479 1479 1478 1480 1482 1485 1487 1488 1491 1492 1495 1499 1499 1498 1501 1503 1502 1501 1499
1533 1537 1534 1536 1533 1531 1534 1530 1522 1518 1519 1526 1528 1530 1529 1522 1517 1510 1503 1496 1492 1486 1478 1476 1477 1477 1478 1479 1481 1483 1486 1487 1490 1493 1495 1497 1497 1499 1498 1500 1502 1499 1498 1498
1534 1536 1535 1539 1535 1532 1538 1536 1531 1527 1529 1530 1529 1528 1524 1519 1514 1507 1500 1494 1493 1491 1483 1479 1480 1480 1482 1482 1483 1485 1486 1485 1487 1492 1491 1488 1486 1488 1491 1490 1491 1490 1489 1489
1537 1539 1541 1543 1535 1535 1547 1545 1543 1540 1538 1537 1540 1537 1529 1522 1516 1511 1504 1500 1497 1493 1489 1486 1487 1486 1486 1486 1486 1486 1489 1489 1487 1485 1485 1485 1486 1487 1489 1489 1488 1489 1487 1485
1538 1540 1544 1547 1543 1552 1555 1547 1547 1545 1544 1544 1542 1538 1534 1527 1520 1513 1509 1506 1503 1499 1497 1495 1493 1491 1491 1492 1491 1487 1490 1490 1488 1486 1485 1484 1484 1484 1484 1484 1486 1485 1484 1484
1539 1542 1546 1554 1558 1557 1552 1548 1548 1547 1548 1544 1541 1536 1530 1524 1518 1514 1510 1509 1508 1504 1503 1502 1499 1497 1496 1494 1492 1492 1491 1489 1488 1487 1485 1485 1484 1484 1483 1482 1482 1482 1481 1481
1541 1543 1549 1554 1557 1562 1556 1549 1548 1549 1548 1544 1541 1537 1532 1527 1522 1521 1515 1513 1513 1510 1508 1505 1503 1501 1498 1497 1496 1494 1493 1492 1490 1490 1489 1488 1486 1485 1483 1482 1481 1480 1479 1479
1553 1554 1557 1558 1558 1558 1552 1549 1550 1556 1554 1545 1541 1537 1535 1534 1534 1526 1518 1516 1514 1513 1510 1508 1505 1503 1502 1501 1499 1497 1496 1495 1494 1494 1493 1492 1490 1487 1485 1484 1483 1482 1481 1480
1559 1560 1562 1562 1562 1567 1552 1550 1553 1552 1547 1544 1542 1539 1534 1531 1529 1526 1521 1517 1514 1513 1511 1509 1507 1505 1505 1503 1502 1500 1499 1499 1498 1497 1495 1493 1490 1488 1488 1486 1485 1485 1484 1482
1557 1555 1557 1558 1561 1554 1553 1552 1550 1547 1545 1543 1541 1538 1535 1531 1527 1523 1520 1517 1515 1514 1513 1511 1510 1508 1507 1506 1504 1503 1501 1500 1499 1498 1496 1494 1492 1491 1490 1488 1486 1485 1484 1483
1550 1549 1551 1554 1553 1551 1552 1552 1550 1548 1545 1542 1539 1535 1533 1530 1527 1522 1519 1518 1516 1515 1514 1513 1512 1511 1509 1508 1506 1505 1503 1501 1499 1498 1497 1496 1495 1493 1491 1489 1488 1487 1486 1484
1547 1546 1548 1551 1551 1550 1550 1549 1547 1545 1544 1541 1538 1535 1533 1530 1528 1525 1521 1519 1518 1516 1515 1514 1513 1512 1511 1509 1508 1507 1504 1502 1500 1499 1498 1497 1495 1493 1492 1491 1489 1487 1485 1483
1537 1540 1545 1547 1546 1547 1547 1546 1544 1543 1542 1540 1537 1534 1532 1530 1528 1525 1522 1520 1518 1516 1515 1514 1513 1512 1511 1510 1508 1507 1505 1502 1500 1499 1498 1496 1495 1493 1492 1491 1489 1487 1485 1483